GFSMA_250_spd_081.txt.gz
Wind_Speed
47 48 49 51 52 53 55 56 58 59 61 63 65 68 71 73 75 76 81 84 84 83 84 87 91 89 89 88 90 83 72 68 65 62 61 59 55 53 51 49 49 50 49
52 55 55 55 56 58 59 61 62 63 65 68 69 71 73 75 77 81 86 87 86 85 88 92 92 92 93 94 91 79 70 67 65 61 60 59 55 52 54 53 49 51 51
57 59 60 60 60 62 62 65 66 68 70 73 74 74 76 78 81 86 88 88 88 89 93 93 93 95 98 98 87 76 69 66 64 62 58 59 56 54 55 54 54 54 54
62 62 64 63 63 65 67 69 70 72 74 76 75 77 78 79 85 89 90 90 92 95 97 95 96 101 103 88 78 72 67 66 62 59 59 61 61 55 55 57 58 57 55
66 65 63 66 69 70 71 73 74 75 77 75 76 78 81 84 88 91 93 93 96 99 98 101 104 106 96 84 76 70 67 64 63 63 62 64 62 60 58 58 60 60 59
66 69 71 73 74 74 75 77 78 78 77 77 80 82 84 87 91 92 94 99 100 100 103 108 110 105 90 82 75 73 71 71 73 68 66 65 63 63 61 61 62 64 62
75 76 76 77 77 79 79 79 79 77 80 82 82 86 88 91 94 96 98 101 102 104 109 113 110 97 87 82 82 83 85 83 80 76 73 71 68 67 66 64 65 65 63
78 78 79 80 80 79 80 78 79 80 82 84 86 91 91 94 98 101 101 102 104 109 114 112 103 94 89 90 92 94 85 79 72 71 71 70 70 69 69 67 68 69 68
79 79 79 80 80 80 79 79 82 83 85 90 93 98 97 97 99 104 106 106 111 115 112 102 96 96 96 97 87 79 73 64 67 62 70 70 73 70 67 71 69 72 70
81 81 82 83 82 82 83 86 87 91 93 94 99 101 100 101 104 103 105 112 116 114 104 97 98 97 92 82 77 72 68 57 67 72 74 68 67 52 60 61 75 66 68
85 85 85 85 85 85 85 88 91 93 95 98 100 102 106 107 106 108 110 115 112 106 102 101 99 89 82 76 71 71 72 72 72 63 64 79 74 73 78 80 78 75 71
88 88 87 87 87 87 90 90 92 95 98 100 103 106 108 108 109 114 117 115 102 99 101 98 89 82 78 77 77 76 76 80 81 78 74 73 79 88 85 84 77 81 74
87 88 87 88 89 90 90 93 96 99 100 104 107 107 109 111 115 116 116 103 96 96 96 89 84 78 75 74 76 77 78 74 79 77 86 83 81 94 83 75 78 78 80
93 93 93 93 95 97 99 99 101 103 105 106 109 109 110 113 114 112 100 97 96 96 87 82 79 74 75 77 75 71 70 73 77 87 86 82 88 90 85 86 85 83 73
96 97 98 98 100 100 103 103 106 106 109 110 109 110 110 111 105 97 95 97 97 85 79 74 72 73 75 78 76 66 59 64 65 65 76 84 85 94 85 84 81 84 79
97 98 99 100 102 104 105 107 107 109 106 105 107 106 109 102 95 93 96 99 89 80 72 69 70 69 68 72 75 67 56 50 48 56 71 87 90 93 88 93 98 93 90
104 103 105 107 106 108 108 107 108 104 106 105 106 108 96 92 93 96 100 90 81 74 69 66 67 64 62 63 66 68 59 47 40 42 60 77 91 99 93 91 94 97 100
110 110 110 109 111 106 106 101 103 103 107 103 105 91 89 93 96 99 88 78 75 69 66 65 64 62 61 59 56 52 44 35 39 37 40 58 75 84 88 98 104 108 111
110 110 108 105 106 101 100 101 103 105 100 91 86 86 91 95 99 89 78 73 70 66 64 65 63 61 60 59 56 51 44 39 39 37 31 30 42 62 80 89 93 100 106
101 99 101 97 96 99 101 102 92 85 82 81 85 90 94 99 88 77 73 69 65 64 64 64 62 61 61 61 60 59 56 51 47 43 40 40 40 42 45 50 60 67 77
97 94 94 96 99 93 85 83 77 76 79 84 88 93 98 86 74 71 68 63 63 62 64 64 62 63 62 62 62 61 58 53 51 52 51 53 55 55 55 57 60 63 67
90 90 86 81 76 77 74 71 74 78 82 87 91 94 84 72 70 66 64 63 61 62 64 63 62 63 64 64 65 64 61 58 57 59 57 60 62 65 67 68 70 72 71
74 74 71 69 70 70 67 71 78 81 86 91 91 81 70 70 64 63 61 57 61 62 63 62 63 64 66 68 68 66 64 64 64 65 64 65 67 63 62 64 65 65 66
66 65 66 65 63 64 70 76 81 85 91 83 79 68 67 62 61 58 56 60 61 62 62 63 64 66 68 72 71 69 68 68 69 69 71 71 67 62 61 60 60 60 63
59 60 57 60 66 71 73 78 84 84 79 74 67 64 59 58 56 56 59 61 62 62 62 63 65 68 72 72 71 72 71 72 73 73 74 74 66 65 64 63 63 63 66
53 56 61 67 69 74 79 79 76 74 66 66 61 56 55 54 56 58 60 61 62 62 63 65 68 71 72 72 72 73 75 74 75 75 75 73 69 69 70 66 63 62 62

GFSMA_250_spd_084.txt.gz
Wind_Speed
43 44 44 45 47 48 48 50 52 53 55 56 57 61 63 66 68 71 73 75 77 80 82 82 86 87 89 92 95 93 94 96 83 69 60 56 53 53 52 48 46 45 43
48 47 47 49 50 51 52 54 57 57 59 59 61 65 67 70 73 74 76 77 80 83 83 87 89 90 93 97 95 97 99 93 78 65 59 54 53 53 51 49 48 48 47
53 52 52 53 54 55 57 58 59 62 61 64 66 68 72 73 75 77 78 80 82 84 86 90 91 94 97 99 98 101 98 86 72 63 56 53 52 51 52 50 50 50 51
56 57 59 58 60 61 62 63 62 62 67 69 70 73 75 77 77 79 79 81 84 87 91 93 94 100 101 102 104 103 96 83 74 67 65 59 59 60 59 54 52 54 53
61 62 62 62 64 66 66 63 65 70 72 72 74 76 78 77 79 80 84 85 90 94 96 97 101 102 104 106 107 106 95 88 82 79 75 69 65 59 58 58 56 54 51
65 64 66 66 66 65 65 70 73 75 76 75 76 79 79 79 82 85 86 89 95 97 100 101 104 106 108 109 109 103 93 89 88 82 73 67 62 61 61 58 58 55 55
69 68 67 65 68 72 73 75 76 77 77 78 79 80 80 82 87 89 90 94 97 100 102 106 107 110 111 111 108 97 92 90 76 69 64 60 57 56 56 54 54 57 59
71 69 71 74 75 76 79 80 79 80 81 82 81 79 82 85 88 91 92 97 100 104 108 108 110 110 111 109 100 96 92 80 69 58 59 56 52 49 57 53 52 54 61
75 77 78 79 80 82 82 82 83 81 81 82 83 84 84 85 89 93 99 103 106 109 110 110 110 110 109 101 100 95 82 72 63 55 53 57 58 57 58 62 54 60 62
78 81 83 85 84 84 84 83 82 83 84 84 86 88 91 93 93 96 100 106 108 108 109 110 107 106 104 100 97 84 75 69 67 66 60 54 57 62 61 65 63 65 66
82 83 82 83 84 84 84 84 85 87 87 88 90 92 94 98 99 102 105 104 107 107 109 109 106 101 99 98 88 77 69 65 65 67 68 66 61 56 68 66 65 62 71
87 87 86 86 86 86 86 87 87 88 90 91 94 95 100 101 105 108 106 107 105 105 108 105 98 98 98 91 79 72 65 64 64 63 68 68 61 66 68 72 76 77 72
90 89 90 89 89 91 91 91 91 93 94 96 98 101 103 106 105 108 107 106 106 109 105 98 97 98 95 83 73 68 65 64 66 65 63 62 61 66 70 74 69 75 70
91 91 92 92 91 91 92 92 93 94 96 98 101 103 106 105 108 106 105 107 109 103 93 92 95 97 86 77 69 63 65 65 67 69 64 55 50 47 56 68 73 76 76
94 94 94 94 94 94 95 97 95 98 100 103 105 108 107 105 106 104 106 107 102 94 90 94 96 89 79 72 64 62 64 63 65 68 66 58 45 42 44 57 67 78 84
99 99 100 100 100 99 100 102 102 103 106 108 108 107 104 105 103 104 105 100 92 90 91 96 92 80 74 65 61 62 62 63 66 68 64 58 54 50 44 44 59 77 85
103 104 103 104 105 105 105 107 107 110 109 109 102 104 101 100 101 101 95 89 89 90 94 94 83 76 67 62 60 61 61 61 62 63 58 57 53 50 46 46 53 64 82
107 109 108 109 109 108 108 109 107 106 104 100 98 97 98 98 93 92 87 86 90 95 98 88 77 69 61 60 61 61 60 60 60 60 59 56 53 49 47 46 45 47 59
107 105 106 104 103 101 99 101 99 98 97 98 97 94 93 84 86 84 86 88 93 98 88 78 71 64 61 59 62 62 61 60 60 61 60 59 58 57 54 51 48 47 48
98 98 97 96 93 94 94 95 96 95 95 94 89 86 81 82 81 85 87 91 98 89 80 73 64 57 58 62 63 63 62 61 61 63 62 61 61 60 60 59 57 56 56
93 92 92 90 90 93 92 93 89 88 84 82 79 79 79 79 81 86 90 96 90 81 75 66 58 59 62 63 64 64 64 64 65 68 66 65 64 64 63 62 60 60 62
84 82 84 85 85 84 80 81 79 75 74 74 75 74 75 78 84 89 92 87 79 76 66 60 60 62 64 64 65 64 65 67 70 70 70 71 70 67 65 64 62 62 64
79 79 79 79 77 75 74 71 69 70 70 70 70 72 76 83 88 91 84 76 73 65 59 60 62 64 64 65 64 65 67 68 71 73 73 70 69 66 66 66 64 61 60
75 73 72 70 66 65 63 65 66 68 65 65 70 78 81 84 86 80 74 69 63 59 60 61 62 64 64 63 65 66 68 70 73 74 73 72 69 69 68 65 61 60 61
66 64 62 60 60 61 60 62 61 61 64 69 76 81 81 79 73 70 66 60 58 59 60 62 63 63 63 64 65 70 73 74 76 75 74 73 71 70 65 66 67 66 65
61 59 59 59 58 56 54 54 57 63 68 74 77 71 74 68 66 64 58 57 58 59 61 62 61 62 63 66 70 73 76 78 78 74 72 74 73 69 71 70 68 65 65

GFSMA_250_spd_087.txt.gz
Wind_Speed
40 40 39 40 41 43 44 45 46 48 50 51 53 54 55 57 59 63 65 67 69 72 72 73 75 77 81 83 89 92 97 99 100 97 95 84 71 58 52 45 45 44 42
44 44 44 45 45 46 48 49 50 51 53 54 56 58 58 60 65 68 69 71 74 75 75 76 77 82 84 90 93 98 102 103 103 101 95 80 72 65 57 53 48 44 43
49 49 48 50 51 52 52 53 53 55 57 59 60 61 60 66 69 72 72 75 77 77 78 78 82 85 90 95 98 103 105 105 104 101 92 85 77 71 68 61 54 50 51
54 53 53 54 55 55 56 56 58 60 61 62 61 62 66 70 74 75 76 77 78 79 80 82 87 90 96 100 102 106 105 107 103 98 92 84 80 72 63 58 55 53 54
58 59 59 58 57 56 58 60 61 63 65 64 66 68 70 75 76 78 78 77 78 80 82 87 90 97 100 104 106 108 108 106 104 97 89 84 74 66 59 54 51 54 56
63 62 60 59 59 61 63 65 66 66 65 67 70 73 75 76 80 80 80 81 84 85 89 92 97 101 104 106 110 108 111 103 99 95 87 78 66 60 53 49 48 52 55
65 65 64 65 66 66 67 66 68 67 69 72 74 76 79 80 80 84 84 86 88 92 95 98 101 104 107 110 111 112 109 105 100 90 83 70 57 54 54 51 49 49 52
69 68 67 66 68 67 68 71 69 72 73 75 77 78 79 82 85 86 89 90 93 95 99 102 104 107 110 111 110 110 104 102 96 88 71 62 57 49 50 50 51 53 53
70 71 72 73 73 73 74 72 73 74 75 77 79 82 83 83 86 89 91 95 97 99 102 105 106 110 112 110 109 105 102 97 91 82 69 57 54 54 50 47 50 57 58
69 71 72 73 74 72 74 77 78 79 80 83 86 87 86 87 89 87 92 97 99 102 105 107 107 109 110 110 109 102 97 94 88 75 65 55 52 51 53 55 60 58 63
73 73 72 72 74 77 80 81 83 85 87 88 89 89 90 92 91 93 93 97 101 103 105 107 106 107 108 106 102 96 93 91 79 71 64 58 54 50 52 54 56 62 59
75 77 77 78 82 84 85 86 89 89 89 91 90 90 90 91 95 97 97 101 100 102 103 102 103 105 104 100 98 94 91 85 74 68 61 57 53 53 53 52 52 51 55
84 85 86 87 89 89 90 90 90 91 89 91 91 93 93 96 99 101 103 105 102 102 99 101 103 102 101 99 92 92 90 78 72 63 59 58 57 54 54 52 43 36 45
89 88 87 88 88 89 89 90 90 91 92 93 95 96 98 100 101 105 105 102 104 99 97 100 99 98 98 93 91 91 80 73 66 61 58 57 58 57 56 52 45 37 30
95 93 93 93 93 92 92 93 93 93 95 96 98 100 101 105 104 104 102 103 100 96 97 96 93 94 92 91 89 87 76 69 62 60 58 59 58 57 59 58 48 43 40
99 98 97 95 95 95 96 96 96 98 100 102 103 103 106 104 102 102 101 101 97 96 93 91 89 91 89 91 91 79 72 64 59 58 59 58 56 56 57 56 54 50 45
103 102 100 99 99 100 99 101 101 103 105 106 107 107 106 101 98 98 99 96 93 92 87 87 88 88 89 92 81 74 65 59 58 60 60 58 57 57 58 58 57 52 49
107 106 106 104 105 105 106 106 107 107 108 106 103 99 97 95 96 99 92 89 87 84 85 86 85 87 91 85 74 66 60 60 62 62 60 59 58 59 60 61 60 57 55
112 111 109 109 109 109 109 108 107 105 103 101 99 97 95 96 87 86 84 81 80 82 83 83 86 90 88 74 66 61 60 62 62 62 60 59 60 61 61 62 63 61 59
105 106 104 104 104 102 101 100 99 98 96 94 93 93 87 80 79 80 78 79 78 79 81 83 88 88 74 66 62 59 62 62 63 62 61 61 62 63 65 66 65 62 60
96 95 96 97 96 96 97 98 96 94 94 89 88 77 75 77 77 76 77 77 76 78 83 86 86 74 65 61 61 63 62 62 62 62 62 64 66 68 68 68 65 61 60
95 95 95 94 93 93 95 91 90 86 87 81 75 75 74 72 72 74 75 72 75 82 85 78 73 66 61 61 62 62 62 60 63 63 64 67 68 69 69 66 63 61 61
91 92 90 89 87 86 88 84 82 80 75 74 73 70 69 69 71 71 68 71 79 84 79 71 66 61 60 61 62 62 60 62 63 65 68 70 71 71 70 66 63 63 62
79 80 78 78 78 76 76 75 73 72 71 67 67 66 67 69 66 65 69 79 83 77 70 65 61 60 61 61 62 61 62 63 66 70 73 74 73 72 70 66 66 64 61
71 70 71 70 71 70 70 70 68 66 65 63 63 65 63 60 64 68 76 82 74 67 65 61 60 60 61 60 60 60 62 66 70 73 76 77 76 74 69 68 68 64 62
64 65 65 66 68 67 65 63 60 59 60 61 58 57 58 64 69 75 77 69 62 63 62 59 59 59 59 58 60 62 65 69 71 75 78 80 79 76 73 71 65 62 61

GFSMA_250_spd_090.txt.gz
Wind_Speed
41 41 41 41 42 42 43 44 44 44 46 48 50 52 52 52 54 56 58 60 64 65 69 71 72 73 75 78 81 85 86 90 95 99 102 103 101 95 83 73 65 60 53
42 43 42 42 43 44 45 45 46 48 50 52 54 54 55 56 59 60 60 64 66 70 70 74 75 77 78 82 85 88 91 95 100 103 105 105 102 92 82 75 69 59 52
46 45 44 45 46 46 47 50 50 53 54 55 57 57 58 61 63 62 65 67 69 73 75 77 78 81 83 86 88 92 95 99 103 106 105 106 96 89 82 77 65 54 47
52 51 50 50 50 50 52 53 56 58 57 56 58 62 63 65 66 65 69 71 74 75 78 80 82 85 87 88 93 95 101 104 105 107 107 100 94 86 80 73 61 52 44
56 56 56 56 56 56 57 58 59 60 60 62 64 65 65 68 68 71 73 75 75 79 81 84 86 87 89 93 97 100 103 108 109 108 104 97 94 86 78 63 55 50 43
62 62 61 60 61 62 61 63 63 64 63 65 65 66 68 71 71 75 75 77 81 84 86 87 89 90 93 97 100 105 107 107 108 108 102 99 91 83 71 58 51 50 47
66 66 65 66 67 66 67 68 66 69 67 64 69 70 73 71 77 77 81 85 87 88 90 90 91 94 96 101 104 107 109 111 109 100 93 93 88 84 68 57 51 46 48
66 71 73 72 70 71 70 69 68 65 67 71 73 73 73 77 78 83 87 90 91 91 90 92 94 97 101 104 106 108 106 107 106 100 92 87 84 77 64 56 49 48 42
67 67 69 69 67 65 65 66 68 71 72 70 70 71 77 77 85 89 93 95 93 93 94 95 97 101 104 106 108 106 105 104 101 97 90 84 82 70 61 51 47 46 45
64 66 64 66 65 65 66 68 67 69 70 71 73 77 80 85 88 89 91 93 93 95 97 99 102 106 107 109 108 103 104 102 97 94 92 84 78 67 54 47 46 43 42
68 73 73 72 71 70 70 70 73 74 74 75 77 81 88 90 91 89 89 92 95 97 100 103 106 107 109 106 104 100 100 97 94 91 90 88 74 64 54 49 47 44 41
73 75 79 80 77 76 75 77 78 76 76 79 84 88 90 90 92 93 94 95 96 98 103 106 108 108 106 103 98 97 94 94 92 90 90 84 71 62 55 50 48 45 44
72 74 76 78 76 75 77 78 78 81 83 86 87 90 92 95 94 96 99 98 100 104 107 109 106 104 102 97 93 93 93 91 89 88 90 76 66 59 53 51 51 46 42
87 83 88 88 88 88 86 85 87 88 87 89 91 93 96 97 97 100 101 103 105 108 110 107 104 103 97 91 92 90 91 89 87 89 83 70 60 56 57 55 52 50 48
99 97 97 97 96 95 94 93 92 93 94 96 98 97 97 99 101 103 104 107 109 109 108 105 100 98 91 91 89 89 88 87 87 87 75 65 57 56 56 55 54 51 48
106 105 104 104 102 100 101 102 102 102 101 100 100 100 99 103 106 107 110 112 111 111 105 98 98 92 89 87 87 87 86 86 89 77 68 59 57 58 59 56 52 50 48
112 112 111 109 109 109 106 105 104 103 103 103 103 104 105 108 108 110 113 113 110 104 99 96 87 85 85 85 85 84 85 87 78 69 60 58 60 60 59 56 53 51 49
111 113 114 113 114 112 109 108 107 107 106 106 106 110 112 111 114 114 110 104 104 99 92 85 83 83 82 83 83 83 87 78 72 62 59 61 62 61 60 56 54 54 55
107 108 110 114 115 113 112 112 110 112 112 111 112 115 115 115 111 103 101 100 97 91 85 81 79 79 81 80 80 85 80 72 64 60 61 62 63 60 58 57 58 58 59
104 105 104 107 108 110 114 115 115 117 117 116 115 114 110 105 103 100 96 93 87 83 80 77 77 78 77 78 83 83 73 66 62 62 62 63 60 59 59 60 61 63 63
101 101 101 104 106 107 108 110 112 112 109 107 105 103 102 99 94 95 91 84 80 79 75 74 76 73 76 80 86 75 67 62 63 62 63 63 61 63 64 64 65 65 66
95 97 96 98 100 99 101 103 103 102 100 101 100 96 96 93 90 88 83 78 77 73 73 73 70 74 76 85 76 69 63 62 63 63 62 62 63 63 65 66 67 68 67
88 91 92 94 95 96 97 98 98 98 98 97 96 92 89 85 81 79 75 75 71 69 71 69 73 77 82 73 69 67 63 61 63 62 62 63 65 67 68 69 70 71 69
78 81 83 86 88 90 91 93 92 92 91 88 84 82 79 77 75 73 69 67 68 66 66 70 75 78 72 66 67 62 61 63 62 63 64 65 68 70 73 73 73 74 71
75 75 77 79 80 82 83 80 80 78 77 77 76 75 71 70 67 64 66 63 59 63 68 74 75 71 65 65 64 63 62 62 62 63 65 68 71 74 76 76 78 79 73
70 72 72 70 72 71 71 70 69 70 69 70 68 67 63 62 62 65 59 59 63 68 74 71 69 65 64 64 62 62 62 61 62 63 67 72 75 78 78 78 79 79 70

GFSMA_250_spd_093.txt.gz
Wind_Speed
40 41 41 42 43 43 42 43 44 44 44 45 47 47 48 50 52 51 51 55 58 61 64 65 69 72 74 78 81 84 85 86 88 91 95 98 101 104 100 93 85 76 67
43 42 42 43 44 44 44 44 44 45 46 47 48 51 52 54 57 53 55 59 58 63 65 68 72 75 77 81 84 86 87 88 92 95 98 102 105 103 96 89 83 74 69
46 46 45 44 44 44 44 45 46 48 49 49 53 55 59 61 60 60 61 61 62 65 68 71 74 78 82 84 87 88 87 92 95 99 102 105 106 99 95 87 82 73 69
51 50 49 48 49 48 48 48 50 52 53 56 58 59 59 62 64 63 61 65 66 70 72 74 77 81 85 88 89 89 92 95 98 101 105 105 105 100 95 86 79 72 62
54 53 53 54 54 53 53 55 56 57 58 60 61 64 67 67 67 65 64 69 71 73 73 78 81 85 88 89 89 91 95 99 103 106 107 106 104 97 92 85 79 71 58
57 57 57 58 60 61 62 62 62 62 63 65 66 68 71 69 67 67 70 71 71 74 78 80 85 88 88 89 92 96 98 100 103 107 107 107 103 98 90 83 76 68 57
50 54 60 63 63 65 66 66 66 67 69 70 71 68 68 65 67 70 72 74 76 78 82 84 88 89 89 93 96 98 101 104 108 105 105 104 98 92 90 84 76 62 54
54 44 45 50 55 57 60 65 72 73 72 71 69 66 65 66 70 71 74 77 79 81 85 89 89 91 94 96 100 101 104 108 110 109 104 99 95 87 85 80 75 59 48
59 57 55 59 61 62 61 61 64 66 66 64 63 64 67 69 72 74 78 81 84 87 90 92 94 96 97 100 102 105 109 111 110 108 104 95 90 87 84 78 69 55 45
62 64 60 55 60 63 65 68 69 67 67 64 66 69 72 72 74 76 78 84 89 93 95 96 99 101 101 104 106 109 113 113 109 106 101 97 86 85 84 79 66 50 42
71 64 59 62 61 61 62 67 69 66 69 71 72 74 78 76 76 79 82 88 91 96 98 102 103 104 105 106 110 112 115 112 104 100 93 92 88 83 83 74 62 48 41
76 75 74 68 69 73 73 71 72 74 74 76 77 77 80 79 77 84 88 91 93 98 102 104 107 108 109 111 114 118 115 106 103 93 90 88 85 85 82 67 56 46 44
78 80 78 78 81 81 75 73 70 71 73 75 74 79 81 83 89 94 96 96 97 99 104 108 108 110 112 114 117 116 107 103 97 87 87 84 83 85 76 64 53 47 45
82 83 84 87 87 85 81 80 74 77 76 79 81 87 95 96 99 98 99 99 103 105 108 109 111 112 115 118 118 111 104 94 88 85 83 82 82 82 69 60 52 49 48
103 98 95 88 86 87 86 86 84 81 86 90 94 99 102 101 104 105 105 106 108 110 108 113 115 117 119 120 111 104 97 89 84 83 82 79 82 73 64 55 53 51 49
104 103 102 102 103 99 94 95 95 97 102 106 106 106 107 108 109 107 110 112 113 112 113 114 119 121 119 110 105 98 92 84 82 82 80 79 78 68 57 54 54 52 48
108 108 109 107 108 106 106 109 110 109 111 111 111 111 112 112 113 113 113 113 115 114 116 120 120 115 108 104 97 90 84 82 81 80 79 81 72 63 56 56 55 52 51
113 111 112 110 111 113 111 114 114 113 112 114 114 115 116 117 115 115 116 119 119 120 120 118 113 108 102 97 89 84 82 80 79 79 78 77 66 59 59 58 56 55 53
107 109 111 113 115 117 118 118 119 119 119 121 120 120 119 119 118 119 117 118 117 116 116 112 107 102 94 88 82 81 79 77 78 79 80 69 63 60 59 59 58 57 56
105 106 107 108 109 109 109 111 111 110 110 111 111 112 111 112 113 112 112 113 112 112 108 106 99 94 86 80 79 77 76 75 78 80 69 67 63 60 60 60 59 60 60
107 107 107 107 110 109 109 109 109 110 109 110 108 111 111 112 111 113 111 108 108 104 102 99 90 82 77 76 76 74 74 77 79 70 66 66 62 62 62 61 62 62 63
108 109 108 107 108 107 106 106 107 107 106 108 108 110 110 109 108 107 106 103 101 97 94 85 77 74 74 74 70 70 75 78 74 64 66 65 63 63 62 63 64 66 68
107 106 105 104 105 105 106 105 103 104 103 106 105 105 103 103 102 99 97 95 89 86 80 75 73 72 72 67 69 73 77 74 66 65 66 65 64 62 63 64 66 69 72
97 97 96 96 98 98 99 100 100 96 95 93 91 92 93 92 89 87 85 80 77 73 71 70 68 69 64 67 72 75 73 69 64 66 65 64 63 63 64 67 70 73 76
86 86 86 87 88 91 92 91 91 91 88 87 83 84 81 80 78 77 73 69 67 68 66 65 66 63 66 70 74 73 69 64 66 64 63 62 62 63 66 69 73 77 80
78 79 79 80 81 83 83 82 83 83 84 81 76 75 74 70 68 67 66 64 61 63 63 65 63 64 69 72 71 68 63 65 65 63 61 61 61 64 68 73 76 79 82

GFSMA_250_spd_096.txt.gz
Wind_Speed
44 42 40 40 38 40 40 42 42 43 45 44 44 45 45 47 48 48 49 53 55 56 58 58 59 63 66 71 72 75 78 79 82 85 88 90 93 97 100 99 95 89 81
47 44 43 41 40 41 42 42 43 44 45 45 45 46 47 49 50 51 54 52 59 60 61 59 62 67 69 71 76 76 78 81 85 89 91 93 96 101 104 100 95 89 79
50 47 46 44 43 44 44 43 43 45 46 46 48 48 51 53 54 55 55 61 64 63 62 62 66 67 71 76 78 79 81 84 88 92 95 97 101 105 104 99 94 88 79
53 50 50 48 47 47 47 47 48 49 51 52 53 54 56 58 58 58 63 65 65 66 62 64 68 73 74 76 80 84 86 88 92 94 98 101 104 110 107 99 95 86 78
52 53 52 52 52 52 53 54 55 55 56 57 59 61 62 62 64 64 69 68 68 62 61 68 71 75 77 79 82 85 88 93 98 100 103 105 108 112 104 98 92 84 76
53 53 54 54 55 57 57 58 59 60 60 62 65 67 67 68 70 70 70 68 66 64 67 70 73 75 78 81 85 89 91 98 102 104 106 108 111 110 102 98 90 81 74
54 55 54 53 58 62 64 60 57 58 62 63 64 62 67 71 73 71 68 68 64 68 70 74 75 77 82 86 88 92 97 101 105 107 106 111 115 107 101 97 89 80 73
56 56 58 61 61 60 54 46 46 46 49 51 50 55 62 65 65 69 70 69 70 71 74 77 77 80 82 90 94 96 99 104 108 111 112 115 113 103 97 90 83 77 72
48 47 46 50 59 67 67 61 59 60 59 59 62 64 67 69 69 71 71 73 74 76 78 78 80 82 92 97 98 100 103 109 111 113 116 116 107 100 96 86 79 74 69
56 61 59 60 60 61 63 67 69 72 74 74 74 73 73 72 73 71 74 76 79 78 77 79 85 93 96 98 105 106 108 111 115 115 116 112 102 99 89 80 77 72 65
71 67 67 69 69 70 71 70 71 71 71 69 65 67 67 70 73 77 75 74 75 80 84 87 96 100 102 105 110 109 114 114 116 117 115 108 102 95 86 77 73 70 63
78 78 74 70 74 74 73 74 72 74 73 77 74 74 75 77 76 76 79 80 79 81 87 95 102 105 107 111 111 114 114 117 119 117 110 104 99 89 83 78 73 69 58
91 87 80 80 79 81 77 79 79 77 78 81 81 79 78 82 83 83 81 83 83 84 92 101 108 110 112 111 114 119 119 119 116 110 104 100 91 83 79 76 72 67 55
96 95 91 88 88 84 85 83 82 83 88 89 85 86 88 85 88 88 88 90 86 94 106 109 115 112 115 117 120 120 119 115 110 106 101 95 83 82 77 75 72 64 54
92 98 97 97 97 92 87 83 83 89 90 89 88 88 87 86 90 92 96 94 99 108 112 115 117 118 119 121 119 116 115 111 107 101 96 85 81 78 75 73 72 61 52
97 96 98 101 102 101 98 94 94 93 91 91 93 94 94 97 99 100 102 107 112 115 116 117 119 122 120 114 113 113 110 107 101 95 88 78 77 75 74 75 66 56 50
100 105 104 102 104 104 105 104 104 106 104 103 102 103 105 105 106 108 111 114 116 117 117 122 118 113 113 115 111 109 105 100 98 89 78 76 74 73 74 72 60 54 52
103 104 105 107 107 109 109 109 110 110 110 109 110 109 111 111 113 114 113 118 119 120 121 113 115 116 114 109 107 104 100 97 89 80 76 73 70 74 75 65 58 56 54
103 107 105 106 107 107 110 113 114 113 113 113 114 114 115 115 117 119 121 120 115 112 112 114 113 113 113 106 105 98 95 86 78 75 73 71 74 75 70 61 58 57 55
105 102 102 105 106 107 107 108 112 115 117 118 118 119 121 119 117 113 110 109 111 111 112 112 110 110 107 104 96 90 82 76 72 72 70 72 74 72 64 60 60 58 56
102 102 102 103 103 105 106 107 107 108 110 110 111 111 110 108 109 110 110 108 109 108 109 108 108 107 99 91 85 77 74 71 69 69 71 73 74 67 62 61 59 57 56
98 100 101 101 101 103 104 105 107 107 108 106 109 110 109 109 108 109 106 106 106 106 104 101 95 90 84 79 71 69 67 65 65 68 73 73 68 63 62 61 60 58 58
99 100 100 99 100 101 103 104 105 106 107 107 108 108 108 107 107 105 105 103 97 94 92 90 85 79 73 69 66 65 64 65 67 69 71 70 64 62 62 60 58 57 57
99 101 102 102 102 103 103 103 104 103 104 106 106 107 107 106 104 104 102 97 93 88 86 82 73 68 65 65 62 61 63 62 68 71 69 67 61 63 59 58 56 56 59
86 90 92 94 96 98 100 100 101 101 101 102 102 102 99 99 97 96 91 89 85 84 75 71 66 64 61 59 61 63 61 65 69 68 66 60 62 59 57 56 56 59 63
78 80 82 83 84 85 86 86 87 87 88 90 91 89 88 86 86 84 82 78 77 71 70 66 64 62 59 60 62 59 63 67 67 65 61 60 59 56 55 55 57 62 67

GFSMA_250_spd_099.txt.gz
Wind_Speed
43 41 41 42 43 41 39 39 38 41 41 42 44 45 46 46 47 47 48 48 51 53 57 58 61 64 66 64 65 68 70 74 73 75 76 80 85 94 101 104 101 100 86
44 43 43 43 44 45 42 40 40 40 41 43 43 45 45 46 48 50 50 51 55 57 60 64 66 67 68 66 67 70 74 74 75 77 80 85 92 98 103 104 103 96 88
45 46 45 45 47 47 47 45 43 43 44 44 45 47 47 49 51 52 54 57 59 62 65 67 68 69 71 69 71 74 75 74 79 81 86 91 99 103 108 107 103 93 90
48 47 48 47 48 50 50 50 50 49 48 49 50 52 53 55 55 57 58 61 64 69 67 69 72 72 70 72 72 76 79 76 80 86 89 96 103 107 106 104 101 90 89
54 49 48 49 50 51 53 54 54 55 55 55 55 54 54 56 57 59 57 57 68 70 67 71 69 69 71 72 74 77 77 79 86 92 98 102 107 107 105 107 98 91 87
58 55 50 48 50 52 55 57 58 59 58 60 58 57 57 58 64 65 64 64 65 67 66 66 69 68 70 74 77 76 81 83 90 97 102 107 108 108 107 102 97 91 84
57 57 55 52 51 53 56 59 60 63 63 62 56 52 63 65 67 65 67 62 63 67 70 70 69 69 75 77 76 78 82 89 94 100 107 108 110 108 104 99 97 91 83
60 59 57 58 56 55 55 58 62 64 68 63 67 71 73 71 69 71 65 66 70 73 75 75 71 73 76 78 78 81 84 92 100 108 110 111 113 107 102 99 93 89 81
66 57 51 53 52 55 58 61 64 68 69 69 69 69 64 66 68 70 73 76 79 76 70 76 78 76 78 79 82 83 88 94 104 111 113 115 110 105 102 95 92 87 77
65 59 46 51 49 50 54 57 60 63 64 68 68 70 70 73 76 74 76 78 79 73 78 77 80 81 83 83 87 92 94 102 110 113 113 115 109 106 98 90 87 83 74
75 73 63 63 65 65 65 66 66 68 72 71 75 76 81 80 79 80 79 78 77 77 81 84 86 83 86 92 93 98 101 109 115 115 115 110 107 100 97 90 85 76 72
80 82 81 74 72 70 67 71 72 72 73 77 82 80 81 82 79 78 86 83 80 83 84 85 85 86 90 94 98 101 108 114 117 117 115 108 104 100 92 88 80 74 69
93 87 86 91 85 79 78 79 79 79 79 79 80 80 81 82 87 91 91 88 87 84 83 87 87 90 92 96 104 109 113 116 117 117 109 106 103 95 89 83 75 71 66
93 95 92 87 90 95 93 91 87 88 89 87 88 88 87 91 90 90 84 84 84 85 86 92 95 97 102 104 109 115 118 119 118 111 108 104 97 91 85 76 71 69 65
94 92 95 98 95 91 91 93 98 98 99 96 94 94 90 87 89 88 84 86 88 90 94 96 101 108 108 110 114 116 120 119 112 110 106 101 95 87 75 70 69 68 63
93 93 95 95 98 98 98 95 97 100 102 100 98 99 99 98 96 93 92 93 95 98 101 103 105 114 113 117 117 121 117 112 111 106 102 97 87 78 70 68 67 66 64
98 97 98 96 97 94 95 99 95 95 96 98 99 101 103 104 103 102 102 104 105 106 109 111 112 113 117 118 121 116 113 111 108 104 98 85 78 71 69 66 66 66 66
100 100 102 101 100 97 95 98 101 105 106 105 106 106 106 107 107 107 107 109 107 110 112 115 115 114 118 121 112 112 111 109 105 100 89 75 70 65 65 64 66 67 63
100 103 103 106 102 101 99 98 100 101 103 105 107 107 110 111 113 114 114 115 114 114 115 116 119 121 116 111 111 109 107 103 99 85 77 67 65 64 62 65 66 66 59
96 98 101 104 102 103 101 101 99 101 102 104 106 106 108 109 110 110 112 113 115 115 117 115 111 108 107 108 107 106 104 95 87 78 67 63 62 61 63 66 66 63 55
92 94 96 97 99 101 102 102 103 104 103 102 103 105 105 106 108 107 108 109 108 108 108 106 106 106 106 106 103 103 94 86 79 70 64 62 59 60 65 66 65 59 55
89 92 93 93 96 98 99 100 101 101 101 102 103 104 103 103 103 104 104 105 105 104 106 105 104 103 102 100 97 93 86 76 67 64 61 59 59 63 66 67 62 55 55
91 92 93 94 95 96 97 98 98 98 98 100 100 98 98 100 101 101 102 102 104 102 102 101 103 100 99 96 92 83 76 69 65 59 58 61 60 64 65 62 57 55 54
87 90 93 95 96 97 98 99 98 99 99 100 99 99 98 99 98 99 100 100 102 101 100 99 97 92 90 85 78 72 65 64 61 57 60 58 61 65 63 59 55 56 53
78 81 83 86 88 90 91 93 94 97 99 100 101 101 101 101 99 99 97 97 96 93 89 87 85 83 76 71 66 64 61 59 58 58 60 60 63 64 61 56 56 53 52
75 77 78 79 81 83 84 85 85 86 86 88 88 89 87 87 85 86 86 85 84 81 79 78 74 69 64 60 59 60 57 60 59 61 63 61 63 62 57 57 54 52 51

GFSMA_250_spd_105.txt.gz
Wind_Speed
49 47 44 43 42 42 40 38 39 40 39 40 42 43 43 43 43 44 46 46 47 48 48 47 48 50 53 57 59 64 64 61 64 71 67 69 72 75 80 88 89 94 95
52 49 46 45 45 44 44 40 39 40 41 43 45 46 47 48 48 48 49 49 50 50 50 53 55 54 55 62 66 65 66 63 71 71 71 73 77 80 81 91 90 95 96
53 52 51 52 50 48 46 46 44 43 43 45 46 47 50 52 52 53 54 55 54 54 57 59 61 61 64 64 63 64 67 67 71 71 76 78 80 82 83 92 90 97 98
58 57 54 53 54 54 53 51 50 51 50 49 49 49 52 53 53 55 56 55 55 57 60 62 64 65 68 65 64 67 67 69 73 76 79 79 78 83 88 91 93 97 99
63 61 59 58 58 58 59 57 56 57 56 56 56 52 52 55 56 58 58 59 59 59 61 63 65 67 70 66 69 68 70 73 73 80 76 77 82 86 88 92 96 99 100
70 68 66 65 63 62 62 62 62 62 61 59 56 55 57 59 60 63 66 65 67 66 65 67 71 69 68 70 70 73 76 74 78 78 82 83 87 85 91 92 98 103 102
76 72 71 71 69 65 65 63 64 64 65 65 67 67 66 67 69 71 71 69 68 67 65 67 70 68 71 71 74 81 82 80 84 89 86 86 84 90 92 95 102 103 100
76 73 73 72 72 71 68 68 67 67 70 71 71 73 74 71 70 71 70 72 70 72 69 70 69 68 74 77 80 79 84 86 83 89 89 90 91 91 93 96 104 106 98
72 76 76 74 74 74 73 73 72 73 72 74 75 74 75 76 78 73 76 75 72 69 67 72 77 80 80 83 82 87 78 83 90 87 89 91 93 95 99 102 105 105 97
77 73 70 70 66 71 70 67 67 69 70 71 75 79 80 80 73 73 73 76 76 76 76 78 84 82 84 85 83 78 86 87 95 92 91 94 94 97 102 105 105 103 97
71 72 62 63 70 68 67 65 64 65 71 76 75 74 72 76 77 80 80 82 82 80 83 81 84 82 82 83 86 92 94 95 96 91 93 93 96 102 104 105 103 98 95
73 60 57 62 68 70 70 68 62 70 70 78 78 81 80 80 82 82 83 83 83 83 83 86 87 91 93 93 95 96 96 94 94 93 92 96 102 102 105 103 101 93 91
84 78 72 73 72 73 77 73 74 82 83 83 85 78 78 83 84 85 85 86 80 82 88 94 93 95 96 94 95 99 99 92 93 93 96 104 102 103 106 101 95 89 88
97 97 98 98 96 95 96 87 92 92 89 87 97 97 90 89 88 91 91 92 92 91 93 95 96 102 100 101 102 99 93 92 95 101 101 99 103 103 101 97 91 89 87
97 97 97 93 90 89 92 96 96 95 93 92 93 91 92 95 94 95 96 95 96 95 102 105 105 105 106 105 100 96 95 100 103 99 101 101 100 102 97 94 88 88 85
97 99 99 98 93 91 91 94 96 97 98 98 98 95 99 99 98 96 95 96 99 100 100 103 104 103 101 100 99 98 99 98 100 101 101 98 97 97 95 90 87 86 85
95 97 96 99 99 96 95 95 96 98 100 102 103 103 104 104 104 102 99 99 100 99 95 94 96 95 95 96 97 98 98 98 96 99 99 98 95 95 90 89 85 83 83
105 102 104 102 101 98 99 100 100 101 102 103 104 104 103 103 103 102 100 98 98 96 95 95 94 94 95 96 95 96 96 97 97 96 95 95 93 91 88 88 85 83 73
106 108 108 107 105 104 102 102 102 101 102 104 105 105 105 104 104 104 103 102 99 96 92 94 94 95 96 95 96 96 94 94 93 94 93 91 89 88 87 86 83 76 69
100 101 101 102 102 101 101 101 101 101 102 103 104 104 105 105 103 102 102 102 101 99 97 95 94 93 93 94 95 93 92 91 91 90 90 88 86 86 84 85 77 70 66
96 95 95 94 94 95 96 97 98 98 99 99 99 101 102 103 102 101 100 99 99 98 98 97 95 94 93 93 92 90 90 89 89 89 89 87 87 86 82 77 70 66 61
89 89 88 89 90 90 90 92 93 94 95 95 96 97 97 96 96 97 96 96 96 94 94 93 91 91 91 93 91 90 90 88 86 86 90 88 84 82 75 70 66 61 55
84 84 84 84 86 87 89 91 92 93 93 94 94 95 95 95 95 94 94 93 93 92 93 92 92 91 92 92 92 92 90 91 92 87 87 82 77 73 68 63 59 56 51
80 79 80 81 82 83 85 87 87 87 88 90 91 92 93 94 95 94 94 94 93 93 92 91 93 93 93 92 91 90 87 85 83 81 78 75 69 65 61 58 54 52 49
78 77 77 78 79 79 81 82 82 81 82 84 85 86 86 87 87 87 87 86 86 86 86 86 85 84 83 82 80 79 78 77 75 72 70 66 63 61 55 53 49 48 47
76 74 74 74 75 77 79 81 82 81 81 82 84 84 84 84 85 85 84 83 82 81 79 79 79 76 77 75 74 73 70 68 66 64 59 58 57 53 50 48 46 45 47

GFSMA_250_spd_108.txt.gz
Wind_Speed
44 47 46 45 45 46 44 41 42 42 42 41 41 41 41 42 42 43 44 45 46 47 46 46 47 50 52 51 54 56 59 63 66 65 62 66 68 71 78 83 76 79 82
48 46 47 47 48 47 46 46 48 48 47 46 46 46 46 44 46 47 47 47 48 47 46 48 49 55 54 55 59 60 62 64 65 64 63 70 74 77 82 79 78 81 84
50 52 51 49 47 48 51 52 51 51 52 51 50 51 52 51 51 52 51 49 50 53 54 56 56 58 61 63 62 65 66 66 66 65 71 74 82 84 82 77 80 84 87
58 56 56 55 55 52 53 54 54 55 55 55 57 58 57 57 57 56 58 60 62 61 61 60 62 65 68 65 65 64 65 63 63 69 74 78 82 83 85 80 82 87 89
61 61 62 60 60 63 64 61 60 62 60 58 59 60 61 60 62 61 61 60 61 63 64 65 69 70 70 68 69 65 63 65 72 72 77 83 83 87 85 83 86 88 92
68 69 67 66 67 67 64 64 65 69 68 64 63 61 63 65 66 66 64 65 68 69 69 69 71 71 70 67 67 69 69 75 74 77 82 83 83 88 90 90 90 90 93
75 74 74 73 73 72 72 73 70 71 73 74 71 68 70 70 71 72 72 73 72 73 70 68 68 67 69 69 71 72 76 80 83 82 83 80 85 85 91 89 91 92 96
76 81 84 84 86 84 79 74 75 71 72 73 74 73 72 76 78 77 79 77 76 74 72 67 63 67 69 75 74 77 83 84 83 82 86 85 89 91 89 87 90 94 92
85 83 83 80 76 77 76 75 72 76 72 70 71 72 77 74 74 74 75 78 73 70 68 66 66 76 75 76 80 81 82 79 85 86 89 92 93 96 89 92 91 98 89
69 72 72 72 72 67 72 77 77 75 77 75 72 72 74 76 82 80 78 68 71 73 68 70 81 79 81 83 83 83 79 87 93 91 90 94 99 90 91 92 95 89 90
59 63 59 60 59 56 58 66 70 73 74 74 71 73 77 75 75 75 72 77 77 84 83 83 84 82 81 83 82 85 90 88 94 90 100 99 91 94 93 94 93 88 86
70 61 65 62 47 62 71 68 68 72 76 69 69 65 66 70 79 77 81 86 87 87 86 87 82 83 82 85 86 90 96 95 87 90 101 94 95 90 91 92 90 88 87
66 66 69 68 74 74 77 74 70 76 77 78 66 65 73 81 81 86 85 87 84 83 83 84 85 85 90 93 92 97 97 96 98 95 97 95 92 90 88 89 89 86 85
84 85 83 79 80 81 79 82 86 92 90 84 83 92 93 94 94 95 98 92 93 87 84 90 88 92 94 96 94 96 94 96 92 92 93 89 87 88 88 88 86 85 84
86 86 83 83 81 88 92 95 98 98 95 97 100 95 93 92 93 95 97 93 93 93 91 95 94 96 97 97 98 98 95 95 93 89 90 91 87 85 85 87 85 83 84
92 95 94 95 100 94 87 91 93 95 96 96 96 98 98 96 97 99 100 99 99 97 95 97 97 98 97 96 96 92 92 94 89 89 88 89 88 86 84 84 84 80 80
99 100 104 105 102 102 103 105 104 100 98 97 97 97 98 101 104 104 104 102 103 103 103 102 99 98 99 98 97 95 91 91 89 88 88 89 86 84 80 80 81 79 77
105 105 106 110 110 112 111 106 106 104 104 103 104 106 106 106 108 108 107 107 108 106 104 103 103 103 102 101 100 98 92 89 90 88 86 84 81 81 80 80 80 80 78
119 118 119 124 121 117 114 115 114 113 112 112 111 114 114 115 112 111 109 109 108 108 106 105 104 102 102 101 98 96 93 91 91 89 85 82 81 79 80 79 79 77 75
125 124 125 124 121 121 119 119 117 114 113 112 111 111 111 109 108 107 105 104 103 102 102 101 100 100 98 98 97 94 90 89 87 85 85 82 80 78 77 78 79 79 74
115 117 117 115 114 113 112 110 107 106 106 107 107 107 107 106 104 103 103 101 99 99 98 96 96 95 94 93 92 90 89 86 84 83 83 81 81 79 80 80 79 73 70
105 105 109 104 105 106 106 105 103 102 103 104 104 104 105 103 101 99 98 97 96 96 95 94 93 93 92 90 89 88 87 86 86 85 84 83 82 81 78 76 73 67 63
95 97 99 98 98 99 99 99 98 98 97 98 98 98 97 95 93 92 92 92 92 92 93 93 92 92 91 90 89 87 86 85 85 84 81 80 77 75 74 71 68 63 58
88 90 92 94 94 92 94 92 91 90 91 90 92 91 90 88 87 87 86 86 85 84 83 83 83 83 82 81 81 80 78 76 74 74 73 71 70 68 66 63 61 56 53
86 86 86 87 90 90 87 86 84 86 86 87 88 87 85 84 84 84 84 84 84 82 81 81 79 78 77 76 76 75 74 72 70 68 68 67 66 63 60 56 53 49 47
81 82 83 84 84 84 80 79 82 82 83 84 83 83 84 81 80 82 82 81 81 82 81 79 78 75 73 72 72 69 69 68 67 65 64 63 59 57 54 51 48 45 42

GFSMA_250_spd_111.txt.gz
Wind_Speed
42 37 37 37 37 38 41 43 44 43 42 43 44 47 47 46 45 45 46 48 49 50 50 49 49 52 52 53 54 56 60 58 57 54 58 55 64 65 68 73 72 78 78
48 43 40 42 41 41 41 41 44 44 46 46 48 49 49 50 51 51 53 52 53 53 52 53 52 53 51 55 56 59 60 55 54 57 59 63 69 73 72 74 79 79 82
50 51 48 47 48 47 48 49 49 49 47 47 51 53 55 55 56 55 55 57 57 56 59 59 55 56 56 60 61 57 53 55 55 61 66 66 74 72 74 78 78 83 85
50 51 53 53 52 51 53 55 56 56 54 57 57 59 61 62 61 65 64 63 65 65 63 63 62 63 65 67 63 54 51 54 65 64 65 71 73 76 76 78 81 87 82
54 53 53 57 58 56 57 56 57 56 56 60 62 63 63 62 64 66 70 69 68 67 65 66 71 74 66 62 55 51 53 63 65 65 67 71 75 77 79 82 81 85 80
64 63 67 65 63 63 62 63 64 63 65 68 68 67 68 70 71 72 72 70 71 69 72 76 72 65 59 57 56 58 64 69 70 68 70 72 73 78 84 78 80 84 84
72 73 75 70 68 66 66 67 67 70 71 72 75 74 71 71 66 69 72 74 74 77 75 72 71 58 58 61 67 67 73 73 72 75 73 76 76 80 83 71 88 86 87
73 69 67 68 71 64 61 63 65 70 72 74 73 72 71 70 71 73 73 74 75 75 74 71 60 61 68 71 73 73 77 78 75 75 76 79 83 82 81 82 87 88 87
73 72 66 67 69 71 73 76 77 73 72 70 69 70 71 72 75 76 73 69 71 71 66 58 62 76 71 77 77 77 78 77 78 77 79 82 87 87 88 87 84 84 84
62 58 60 65 65 63 63 63 62 62 65 68 71 73 73 74 74 68 74 71 76 70 69 67 77 75 73 76 82 79 80 81 81 82 86 90 87 85 88 94 82 81 82
66 69 66 59 58 59 57 61 62 64 68 68 71 72 67 66 68 62 74 75 76 70 75 83 80 81 78 85 83 83 79 79 84 89 88 92 87 91 86 89 85 81 83
68 63 55 53 51 51 54 54 58 62 67 72 69 70 72 73 70 75 71 81 73 80 82 92 90 87 85 86 86 86 83 82 85 87 87 89 90 88 84 83 84 84 82
57 53 55 58 53 58 59 63 68 73 72 68 71 77 79 76 74 82 86 87 90 90 93 93 92 92 90 89 90 90 88 86 85 88 87 84 86 87 85 83 81 81 80
60 61 54 55 57 62 62 66 66 68 74 75 78 82 81 82 84 89 88 88 89 92 91 97 94 92 92 91 95 98 95 92 90 89 89 91 88 87 87 84 82 81 79
71 69 67 65 66 69 70 74 77 81 84 86 87 83 87 85 90 91 92 95 96 95 93 96 97 98 99 99 98 103 100 98 96 93 91 92 92 90 88 83 81 81 77
80 81 78 75 77 77 77 81 88 91 85 78 83 84 86 95 104 99 102 104 104 102 101 104 106 108 109 106 107 107 105 103 101 98 94 94 91 88 88 84 79 78 73
86 88 89 84 83 88 88 92 92 90 94 100 96 99 105 111 105 102 105 113 114 109 109 111 111 112 111 111 110 110 107 103 101 101 97 93 89 86 85 82 80 74 71
96 97 98 95 87 90 91 94 97 100 103 107 106 114 114 109 111 118 123 121 121 118 113 111 109 108 108 107 104 103 102 100 97 95 94 91 85 83 79 78 77 73 69
104 105 101 95 98 103 103 103 107 114 114 117 120 117 116 123 129 131 129 125 118 114 112 109 107 105 103 102 99 96 94 91 90 89 89 84 82 78 77 76 74 71 69
102 102 104 108 106 106 108 112 121 123 121 122 124 128 132 136 133 131 125 118 115 112 108 105 104 103 102 99 95 91 88 87 87 85 84 81 77 76 76 76 74 72 71
109 108 106 107 111 115 112 120 124 127 132 135 137 138 138 134 128 123 120 118 111 108 105 103 102 99 94 90 88 86 85 85 83 82 81 81 78 77 77 77 74 74 71
113 115 117 116 118 121 126 134 136 138 145 141 138 135 130 125 122 121 116 111 108 102 100 96 93 89 86 83 81 79 78 78 77 77 77 75 73 73 71 72 67 66 65
120 124 123 128 134 134 138 144 145 146 143 138 131 126 118 119 112 107 108 104 101 96 93 90 87 84 81 79 78 77 75 73 72 71 70 70 67 65 63 63 62 61 59
136 135 134 133 135 138 138 139 139 139 135 126 120 119 107 106 105 100 98 97 96 93 89 86 84 81 79 78 75 72 71 70 69 68 67 66 65 63 61 60 59 58 56
123 121 123 119 119 125 124 118 118 117 115 109 101 103 102 99 95 94 93 93 91 88 85 82 81 79 78 77 75 72 69 66 65 62 61 61 59 59 58 56 55 53 51
105 103 104 108 107 109 106 101 99 98 100 100 98 95 94 92 90 90 89 87 87 85 83 81 80 78 76 75 72 68 63 61 59 58 56 56 55 54 53 52 50 48 45

GFSMA_250_spd_117.txt.gz
Wind_Speed
48 43 42 41 39 38 37 36 34 34 34 33 33 35 37 41 44 43 45 46 44 47 50 46 53 51 58 60 56 53 51 47 45 38 48 59 60 58 58 59 63 65 66
51 50 48 47 47 43 41 41 39 39 38 40 39 43 44 43 48 46 48 47 50 50 47 52 54 55 62 59 56 52 50 47 44 41 55 63 64 64 64 64 65 66 67
54 55 52 51 52 49 48 46 46 45 44 47 46 46 43 43 51 51 48 49 51 54 56 56 59 60 61 58 54 48 48 50 48 48 63 64 64 63 63 65 65 68 73
60 59 59 53 53 54 52 51 48 49 43 42 40 45 44 51 50 53 53 56 57 60 60 60 60 56 54 52 51 46 45 55 52 60 62 64 64 65 63 65 68 69 73
64 60 59 59 56 56 55 51 53 45 47 44 47 43 48 50 49 50 55 60 63 64 63 60 54 50 51 46 45 48 53 57 58 61 64 66 66 67 71 74 76 75 75
63 64 62 62 61 60 56 50 53 50 53 54 58 61 54 54 56 60 62 64 65 64 62 57 49 52 51 45 50 51 56 53 56 61 66 73 78 81 86 90 88 84 85
60 62 63 61 57 57 57 62 61 59 60 64 63 67 70 71 70 68 66 65 64 60 55 51 54 54 52 51 53 55 53 59 60 70 75 80 79 89 95 103 106 105 102
56 59 53 50 51 53 56 59 60 62 63 67 70 72 75 72 66 61 61 62 58 56 54 56 57 51 53 51 56 58 60 62 70 73 81 86 84 90 103 107 99 101 102
57 53 51 50 49 53 55 56 58 64 68 72 72 71 67 62 60 58 60 57 60 56 55 53 51 55 56 58 61 61 63 67 71 75 82 78 84 93 104 110 106 105 100
59 51 52 49 49 52 55 59 63 67 68 69 66 66 65 64 59 64 61 59 59 63 62 59 55 57 60 65 66 64 69 75 76 80 84 82 83 105 113 116 114 99 91
53 45 49 52 52 58 59 62 69 66 66 69 69 66 66 64 63 63 64 65 68 68 63 64 65 67 65 67 71 68 71 76 81 86 88 90 95 113 119 111 95 88 85
50 51 52 53 57 60 63 65 63 68 71 68 64 67 69 67 66 68 70 67 67 66 67 68 66 65 65 70 70 73 74 81 84 86 90 96 102 115 118 103 94 87 83
58 55 55 57 57 57 64 66 68 69 69 68 70 73 75 68 63 69 69 75 71 74 70 69 67 70 74 80 74 73 80 87 90 92 98 105 107 127 106 90 88 85 80
66 59 55 56 58 62 62 67 66 69 69 70 69 65 60 61 65 65 67 66 66 68 72 71 74 77 78 82 80 89 94 96 102 105 103 112 122 115 92 85 81 77 75
58 55 53 56 59 65 59 62 63 66 67 68 65 64 65 70 70 70 65 66 71 74 76 79 83 78 86 94 95 98 99 101 104 111 114 118 130 106 98 83 73 70 69
55 53 56 62 65 65 64 58 71 69 67 59 63 74 78 76 73 70 73 75 77 76 79 85 90 98 100 105 109 109 108 112 117 120 124 131 115 98 88 77 71 69 66
63 59 65 62 61 64 65 78 77 77 74 74 77 77 81 76 76 76 76 79 81 84 91 99 101 107 111 115 115 113 122 124 131 139 142 121 114 97 83 75 68 66 63
72 74 76 72 75 79 83 86 86 84 85 85 87 85 80 83 77 82 84 86 91 98 100 105 110 115 122 123 124 129 134 136 139 147 135 126 107 88 79 74 69 65 63
78 79 79 78 80 83 82 83 82 85 89 86 88 87 85 86 87 86 91 98 99 102 106 112 120 125 124 129 134 136 137 142 148 149 136 119 99 85 78 74 68 65 62
82 83 88 88 89 93 93 94 93 92 92 92 86 87 90 91 95 99 101 102 106 110 116 121 126 128 132 134 139 140 145 147 153 150 140 116 96 85 78 72 67 61 57
85 87 92 93 94 94 92 89 92 91 89 88 91 93 95 95 99 102 107 109 116 121 122 126 129 133 135 139 139 145 149 150 156 149 135 103 94 86 78 67 62 58 56
86 94 96 97 95 93 94 93 94 92 93 96 99 100 100 105 107 110 115 119 122 123 128 135 133 136 142 146 150 152 153 155 155 139 113 99 91 83 72 64 56 52 52
95 93 91 93 98 99 100 97 96 100 101 103 104 107 108 109 112 115 119 123 126 131 137 139 141 142 146 146 150 154 157 159 139 127 102 95 87 77 64 57 52 48 49
108 107 106 106 108 107 106 107 105 109 110 112 113 115 118 122 124 126 126 130 135 138 141 144 146 147 151 153 151 155 161 152 129 103 95 90 81 68 59 51 48 46 46
124 124 120 119 118 117 118 120 120 121 122 122 123 124 126 128 129 134 134 140 143 144 146 148 150 149 151 153 156 161 151 133 107 97 90 84 73 62 54 48 43 41 41
130 128 123 122 124 124 124 127 129 131 132 131 131 132 135 138 139 142 146 146 150 151 150 147 148 151 160 160 161 155 135 104 96 90 86 77 67 56 50 45 40 37 36

GFSMA_250_spd_120.txt.gz
Wind_Speed
55 50 45 41 38 34 34 35 36 36 36 37 37 35 33 36 39 39 37 38 38 41 40 39 45 49 53 55 51 45 45 41 38 40 45 43 47 49 53 62 68 79 93
57 52 50 47 44 41 41 41 43 44 42 42 44 42 43 45 42 41 36 37 39 40 43 48 52 53 56 56 51 47 43 36 37 41 45 44 49 60 65 69 76 81 89
61 57 54 50 48 46 44 44 47 49 49 47 48 50 49 45 40 38 39 39 43 40 46 53 56 55 56 50 48 45 42 37 41 44 43 49 53 60 61 71 72 78 87
62 60 57 53 53 51 51 52 54 50 50 52 51 51 56 48 45 38 43 50 52 56 55 57 58 58 50 45 43 45 43 42 44 46 45 50 53 62 67 70 73 82 85
63 60 61 59 59 57 55 53 53 55 52 52 52 56 53 52 50 52 54 59 63 62 62 58 59 53 50 42 47 48 42 43 46 50 48 56 59 67 70 74 79 81 87
63 61 59 55 58 58 59 57 60 57 58 54 53 52 52 55 56 59 63 64 65 65 61 61 52 49 43 45 46 42 43 44 46 55 57 61 62 66 75 78 80 82 86
62 62 55 59 59 60 60 62 60 59 51 52 56 58 60 62 61 62 63 64 65 62 59 52 50 48 43 45 47 45 46 46 53 54 57 56 63 69 75 77 84 88 93
60 57 54 56 55 53 54 57 53 49 52 57 59 57 58 59 63 65 64 63 61 60 56 56 49 46 48 52 47 47 48 48 54 56 56 56 66 70 81 86 92 96 106
55 57 57 53 55 52 53 54 49 48 53 54 56 60 59 60 62 62 59 61 64 63 60 56 54 53 54 51 49 50 55 59 57 59 60 70 70 81 83 87 92 106 126
58 60 58 51 54 54 53 52 51 51 53 57 59 62 65 62 62 62 61 63 65 63 60 62 56 53 57 53 51 53 60 60 61 62 68 74 83 89 91 98 101 114 109
57 56 59 54 51 52 52 52 49 52 56 61 63 65 67 66 63 64 68 67 64 66 60 58 56 60 60 57 59 65 64 59 64 68 75 86 94 92 99 109 111 117 95
55 54 55 54 54 53 55 53 54 53 61 65 69 66 68 67 70 69 65 66 67 68 65 62 65 69 64 64 65 71 72 66 66 77 84 89 94 102 108 108 122 123 91
50 50 50 53 57 57 54 52 54 58 65 71 70 69 70 72 74 71 67 68 70 65 71 75 73 69 63 74 71 68 65 68 76 84 88 98 100 110 121 119 133 119 90
62 56 59 60 60 57 51 56 60 66 69 69 71 73 73 74 67 69 68 66 68 80 78 73 75 78 77 79 73 76 74 82 85 91 103 106 112 122 125 133 138 122 87
59 58 62 63 65 58 59 60 67 69 69 71 74 73 70 68 68 74 70 73 78 75 75 79 82 81 84 74 79 82 84 92 97 104 112 115 128 128 133 137 139 117 86
63 60 68 63 64 62 63 58 57 65 67 70 73 73 70 72 73 72 77 75 73 73 82 87 88 87 83 87 85 92 101 102 107 119 119 128 135 140 138 138 141 117 88
60 63 67 69 68 61 54 52 59 67 67 71 76 74 73 73 75 80 80 76 78 80 88 91 89 89 87 95 97 104 108 112 118 124 126 138 144 145 147 141 145 111 85
69 73 76 77 69 65 59 59 61 65 70 74 77 76 79 80 81 85 87 87 88 87 89 90 90 92 93 100 106 108 113 121 118 125 133 136 146 150 147 147 150 107 84
70 72 70 67 68 69 70 75 73 80 87 89 91 88 88 87 88 86 86 87 87 89 91 93 91 96 102 106 107 111 118 121 126 134 142 145 149 148 147 157 137 104 87
71 73 70 70 72 75 76 79 82 86 88 90 91 85 87 89 89 93 93 94 95 94 101 96 98 102 104 109 115 121 124 128 134 137 144 148 147 145 151 148 125 93 85
76 75 79 77 77 81 83 82 82 84 85 86 86 90 92 94 95 97 100 98 101 101 104 101 103 106 108 114 121 127 131 134 137 142 148 139 146 150 156 133 113 91 81
83 86 80 82 81 84 91 94 95 94 95 97 98 97 101 104 100 101 98 99 100 99 102 103 107 110 118 122 130 133 136 138 140 148 150 144 155 156 143 127 99 88 78
86 88 89 91 88 89 93 95 95 95 95 97 100 107 107 101 97 102 105 103 102 103 108 110 115 122 128 130 135 139 144 142 145 152 149 155 153 152 131 123 94 85 74
85 96 92 91 93 98 97 95 93 92 94 95 99 101 104 106 107 108 109 107 107 112 116 122 126 127 135 137 143 147 147 145 147 147 148 154 154 140 128 98 87 79 66
100 95 98 103 106 103 103 100 100 102 100 100 101 105 106 107 103 110 118 117 125 126 127 131 134 137 140 141 146 149 149 148 152 158 152 153 143 136 110 92 83 71 57
105 108 111 106 107 108 107 107 106 106 109 112 114 116 116 117 122 125 127 129 133 136 136 135 138 142 144 148 150 151 149 151 160 148 156 141 124 109 91 84 74 62 51

GFSMA_250_spd_123.txt.gz
Wind_Speed
55 51 49 46 44 43 38 34 34 33 36 37 37 38 35 38 38 40 41 43 40 38 37 37 40 43 49 54 53 51 43 41 40 39 41 39 44 44 49 55 56 60 68
60 56 50 49 47 46 43 40 41 42 39 40 41 42 45 43 42 45 46 47 45 41 40 40 49 56 56 57 52 46 43 42 41 42 38 39 44 49 45 49 54 64 77
65 60 56 52 51 50 48 47 47 47 46 44 45 50 50 48 46 48 48 47 47 46 46 51 55 59 60 55 48 42 41 43 41 36 34 34 40 48 47 55 63 70 74
68 63 58 55 55 54 51 51 52 49 50 50 48 48 49 49 47 50 49 48 49 48 52 57 60 61 59 55 42 39 36 40 37 36 33 37 44 53 56 59 69 76 83
62 61 62 60 59 59 55 56 56 56 56 55 54 54 54 54 49 48 49 49 48 52 58 62 60 59 57 48 43 41 40 38 41 37 38 47 49 44 57 62 74 78 88
60 61 60 60 60 59 59 59 57 58 56 57 56 57 59 54 47 48 50 50 55 59 58 60 58 55 56 54 52 46 44 43 40 37 38 47 53 52 60 67 78 81 86
54 59 61 63 60 59 59 57 56 60 58 59 58 58 59 50 52 54 54 53 55 56 59 56 54 54 57 52 47 49 49 44 41 40 39 49 57 52 60 66 82 86 93
41 48 58 63 61 59 58 60 59 58 61 61 61 57 51 51 54 50 50 52 56 58 57 54 56 56 54 51 49 42 44 45 44 46 57 64 56 60 63 73 87 90 97
44 50 55 58 61 58 59 54 53 52 56 60 55 52 51 56 55 52 54 56 57 60 60 60 59 61 60 57 51 55 55 57 49 64 64 62 54 63 69 77 89 95 104
50 52 51 56 56 55 55 56 56 58 60 55 53 51 53 60 57 57 57 61 62 63 65 64 62 63 64 64 58 61 60 61 59 65 67 53 61 67 77 79 91 95 108
54 51 50 50 49 49 49 55 55 56 59 51 54 51 58 63 62 59 60 64 66 66 65 65 67 68 68 66 68 71 70 68 67 67 63 61 63 67 79 88 92 96 112
50 47 53 53 53 54 56 51 54 58 52 55 56 58 61 66 67 65 67 67 68 68 67 67 69 67 70 72 71 72 66 68 72 71 63 67 71 80 85 90 96 102 117
52 53 56 58 57 55 55 49 51 54 51 55 58 64 68 69 69 68 70 69 70 68 69 72 73 71 74 75 77 71 70 78 77 78 71 76 82 88 93 94 102 111 121
66 56 59 56 54 54 48 49 53 53 58 63 61 64 69 71 69 71 72 68 72 75 77 73 72 73 72 75 77 75 79 84 83 85 81 83 88 95 99 105 110 120 127
59 58 60 60 59 57 57 51 58 61 64 59 63 67 74 77 76 74 72 71 73 75 76 76 73 73 78 78 82 84 87 87 92 89 89 91 94 96 102 110 115 123 131
56 55 58 56 59 64 61 60 63 69 67 62 66 73 80 84 82 78 74 71 76 78 78 75 75 78 80 81 86 91 93 91 94 93 96 96 96 102 108 116 121 128 135
61 57 66 65 63 61 61 68 68 73 71 66 68 72 75 73 75 73 74 75 76 75 78 79 80 81 83 91 94 95 94 93 97 99 99 102 102 109 116 123 127 132 135
68 63 65 66 64 68 67 67 75 73 71 72 67 74 77 78 80 79 78 79 81 81 83 84 83 86 89 95 97 95 93 95 97 99 101 107 112 116 123 129 134 139 139
62 67 69 70 72 73 74 74 75 80 78 74 70 74 79 81 81 83 85 85 83 83 84 87 90 94 97 99 100 96 98 99 100 102 108 112 118 126 131 132 140 145 147
67 68 66 69 75 76 78 76 78 80 84 84 82 79 79 82 82 83 85 85 87 89 94 95 98 98 98 102 97 97 100 100 102 110 115 121 124 130 134 135 141 143 151
81 78 75 76 75 77 79 83 84 82 82 83 83 85 85 88 92 88 92 92 95 99 98 98 99 101 104 100 100 100 100 104 111 117 122 123 132 134 137 142 146 143 141
83 84 90 89 81 82 83 84 86 86 84 89 87 88 91 92 96 98 97 96 98 98 97 100 100 100 99 99 97 104 106 110 116 120 127 132 133 140 141 145 144 140 139
87 81 85 90 87 85 87 87 81 83 85 89 92 92 95 97 97 94 95 95 95 100 99 102 103 102 103 105 107 112 113 119 125 128 132 137 138 141 144 139 150 139 140
95 91 87 89 88 87 88 87 86 87 89 91 94 94 96 97 96 95 99 98 100 100 103 104 105 105 110 111 111 117 124 127 131 140 145 146 145 147 144 139 138 130 130
94 92 95 94 92 97 96 96 98 99 98 98 98 100 102 101 103 104 107 104 104 108 107 107 115 112 113 121 121 126 131 138 144 142 143 143 143 146 143 132 134 119 136
103 99 96 97 96 100 101 103 107 104 105 106 105 107 109 109 115 113 111 114 113 112 114 114 116 121 125 128 133 137 143 145 144 145 145 140 151 136 136 150 133 99 99

GFSMA_250_spd_126.txt.gz
Wind_Speed
60 58 55 50 45 43 41 38 38 35 34 34 33 35 35 36 34 36 41 41 43 43 43 46 48 42 42 48 53 58 57 48 45 37 32 24 20 28 35 43 56 64 63
63 61 57 53 50 47 45 42 41 40 39 39 39 40 41 38 39 40 44 44 45 46 46 48 46 43 46 50 55 59 54 45 42 41 31 28 27 33 36 47 58 60 64
64 63 60 58 55 53 50 46 45 44 43 44 46 44 45 43 45 44 44 46 49 49 49 46 46 48 50 55 58 57 50 51 50 44 40 31 29 31 36 56 71 64 65
66 63 61 61 60 57 54 51 50 49 47 47 48 48 50 50 52 50 49 48 52 50 50 46 48 50 53 57 56 55 47 48 48 44 45 46 37 37 48 60 71 58 66
64 59 61 62 63 62 57 56 54 53 51 51 53 53 54 52 57 51 50 51 53 54 47 49 51 56 56 55 56 50 50 47 43 44 38 41 38 43 55 56 67 65 70
52 49 53 59 65 63 61 60 58 57 56 56 55 55 53 57 56 59 56 53 54 47 48 51 53 54 55 55 54 52 53 46 46 40 43 43 40 50 52 56 64 60 69
53 54 51 56 63 64 62 59 62 60 56 56 57 54 55 57 56 58 58 55 49 47 49 51 53 54 55 55 56 56 52 52 49 50 50 51 48 50 48 58 60 68 72
51 45 41 45 55 60 62 60 59 60 59 57 56 59 61 56 53 54 54 51 50 51 53 56 59 61 62 61 61 57 54 57 56 51 52 57 52 56 60 64 64 70 73
50 49 48 46 46 44 55 56 53 57 57 58 59 61 59 56 58 55 50 53 52 51 55 58 62 65 65 64 61 61 59 63 64 63 56 61 61 62 59 61 63 65 72
48 50 47 45 43 45 44 51 59 54 58 60 60 61 59 60 59 57 53 54 57 56 57 59 62 64 64 63 63 62 64 64 69 65 62 61 62 65 64 65 70 68 72
51 53 52 53 46 45 44 48 49 54 56 57 56 58 60 61 62 55 58 59 60 61 61 62 61 66 67 68 64 64 69 69 69 67 67 69 69 69 69 72 72 71 80
55 54 57 57 48 48 47 49 50 48 48 52 55 57 62 60 58 59 62 62 64 65 62 65 69 69 69 65 64 67 71 76 72 71 73 73 73 72 74 76 79 76 85
55 53 55 55 51 51 50 48 49 49 50 53 55 60 62 61 58 64 66 69 68 62 65 70 71 75 68 66 69 71 70 76 71 73 73 75 74 75 78 79 81 95 86
65 59 59 54 57 56 53 54 51 52 54 55 58 61 59 62 65 70 71 73 74 76 76 75 74 75 71 74 70 71 74 74 76 75 78 81 79 82 81 84 84 97 98
72 63 58 56 58 60 58 60 54 54 55 55 56 54 61 65 71 74 78 81 80 82 77 76 78 73 71 69 73 74 74 78 79 80 79 81 84 87 90 93 93 99 104
75 69 64 58 58 65 64 62 62 60 59 60 61 61 65 71 78 79 82 82 80 83 78 77 74 74 70 70 72 77 79 82 82 82 84 86 86 92 95 95 100 102 106
77 65 67 66 64 63 64 61 59 58 57 60 63 64 69 79 84 85 85 83 81 82 80 78 79 77 73 72 78 80 83 86 87 86 87 89 91 94 97 102 105 108 113
83 73 65 67 64 58 58 56 59 66 66 61 64 66 78 79 82 85 85 83 85 87 85 82 77 77 77 83 83 84 84 85 87 89 94 95 96 100 104 106 104 112 115
86 84 72 68 66 62 64 57 67 75 70 70 72 71 78 85 86 87 88 88 90 89 85 83 84 84 87 88 87 88 90 88 92 96 93 98 100 104 105 106 112 120 124
78 74 77 79 78 77 77 72 71 72 75 73 72 74 78 82 84 86 91 93 93 92 89 88 87 90 91 92 92 90 94 95 97 100 99 101 103 105 103 113 120 131 136
75 76 78 78 74 76 76 77 79 82 83 81 81 81 84 87 90 91 92 92 92 91 93 92 93 95 94 94 94 100 100 100 101 102 100 102 104 109 111 120 129 133 141
70 73 77 76 76 81 80 83 83 85 85 84 84 87 89 93 96 95 95 97 103 96 96 98 98 97 99 99 101 101 102 103 100 103 103 108 110 113 110 128 135 138 137
72 73 76 76 78 81 84 87 86 90 86 90 91 90 89 92 96 97 99 100 103 99 96 98 100 100 101 104 102 105 105 105 106 105 111 113 112 116 128 133 140 145 143
81 81 81 83 87 88 90 91 92 91 92 95 94 93 93 96 98 96 99 97 99 103 102 101 101 101 104 105 107 109 109 111 108 112 114 114 115 125 130 141 142 144 135
86 86 88 89 89 88 91 94 94 93 94 100 99 99 103 104 105 103 103 107 102 105 104 105 105 104 107 109 109 112 113 112 113 115 116 120 130 132 138 142 149 140 144
94 93 95 93 95 96 99 100 100 100 100 107 109 109 111 110 109 112 109 109 107 109 110 110 109 108 109 111 114 114 113 117 117 122 123 129 134 138 144 148 144 142 138

GFSMA_250_spd_129.txt.gz
Wind_Speed
60 58 57 56 54 52 50 47 42 38 33 33 31 30 31 32 33 34 35 36 37 37 39 41 42 45 45 46 47 46 48 52 51 48 45 39 36 34 34 36 41 51 54
61 61 61 60 58 56 54 49 46 42 39 36 36 34 34 36 37 37 39 41 42 43 47 45 44 45 46 48 46 47 50 51 50 48 43 38 37 43 38 36 41 52 51
61 62 61 62 61 58 56 53 51 48 45 41 39 40 41 40 41 42 42 44 47 49 48 49 48 46 48 45 45 48 49 48 50 48 43 40 41 42 44 42 48 46 57
66 66 63 61 62 62 59 56 54 51 48 46 44 45 46 45 46 46 47 45 48 49 51 52 49 48 43 45 49 48 46 50 50 50 45 44 41 39 41 42 43 55 63
65 68 65 62 62 64 60 58 58 56 54 51 50 50 51 50 51 51 49 47 50 52 53 49 46 43 45 47 47 49 52 54 53 45 45 44 46 44 43 51 55 54 66
66 65 60 58 59 62 63 62 60 58 55 54 54 56 56 56 53 50 51 52 53 53 48 46 45 44 46 52 52 54 55 54 49 47 48 49 53 50 49 51 53 56 63
66 66 61 60 59 62 62 62 62 59 58 58 57 57 59 62 58 52 52 56 54 52 52 49 46 46 51 53 54 57 53 53 57 54 54 54 56 51 53 56 56 60 68
68 63 63 57 61 61 57 58 61 62 60 59 59 57 56 61 61 58 58 59 57 54 53 52 45 50 53 56 59 59 55 60 62 60 58 58 54 59 61 58 56 62 68
68 66 58 54 55 52 50 53 56 59 58 57 57 55 54 59 58 63 60 59 58 56 56 52 49 51 55 61 64 65 64 67 66 64 65 61 59 62 55 59 61 65 68
70 66 59 53 53 55 49 45 48 47 45 53 53 53 60 62 58 61 56 58 58 61 60 57 53 53 57 64 65 68 69 66 66 67 68 63 61 64 57 61 65 71 72
72 69 61 57 56 53 46 45 48 43 43 55 55 58 60 63 65 59 57 53 58 63 58 57 53 57 59 64 68 68 66 68 68 70 64 61 65 68 66 66 68 68 72
76 65 64 61 58 60 52 48 46 43 51 49 54 56 55 54 52 50 52 55 60 59 57 56 56 60 63 67 70 71 73 72 75 77 74 68 65 70 71 70 74 72 74
76 70 66 62 60 54 54 51 50 53 53 57 56 53 49 50 51 52 54 61 63 61 58 54 59 64 68 70 72 74 76 78 78 79 73 70 73 74 76 77 79 77 78
76 79 73 67 62 57 53 54 58 57 59 58 51 51 52 56 55 57 59 62 64 60 60 61 66 67 72 75 77 76 74 78 82 82 76 74 78 78 80 80 82 83 84
79 74 69 67 60 56 55 53 55 57 61 61 53 55 59 60 56 58 63 66 68 67 65 65 68 73 77 77 80 79 81 81 81 83 79 80 82 82 85 83 86 88 90
82 75 69 64 67 58 57 56 52 55 60 65 57 61 64 62 62 64 64 66 71 71 69 69 71 74 76 78 82 83 83 83 84 83 81 84 84 85 87 87 87 91 96
80 73 68 68 65 60 63 62 56 57 62 63 64 63 67 67 65 62 65 69 75 73 74 76 77 80 80 82 84 85 86 86 86 82 82 85 85 88 90 91 92 92 94
79 75 77 73 66 67 68 71 66 62 60 65 70 69 70 68 67 67 71 76 76 76 78 78 80 82 85 87 88 85 89 90 84 82 84 86 86 90 92 92 93 93 95
83 79 75 69 66 69 71 70 75 70 69 72 73 70 66 66 70 75 74 79 80 78 80 84 85 89 88 90 90 94 90 88 86 86 88 87 92 94 94 95 93 97 97
85 80 81 77 73 80 73 70 75 73 73 75 77 72 68 73 77 78 78 77 79 85 88 89 90 90 95 95 97 93 90 88 88 91 92 94 99 94 94 95 96 98 99
92 89 88 90 79 83 75 75 85 77 75 79 79 78 82 83 78 85 83 83 84 85 87 89 93 94 98 98 93 92 93 97 96 97 99 98 96 96 96 95 100 101 102
80 90 87 82 81 80 79 81 85 89 96 92 89 86 84 83 85 82 85 89 92 92 94 94 94 97 95 94 100 98 100 100 99 99 100 99 100 100 99 100 100 103 106
77 84 85 79 78 82 84 91 87 90 89 90 90 90 87 86 87 91 91 94 98 99 99 98 101 99 104 99 104 101 97 99 98 97 101 104 103 103 102 104 105 108 116
77 82 81 83 85 89 93 92 91 93 97 98 98 104 96 95 96 100 100 100 99 99 105 107 107 102 104 107 104 104 103 98 103 102 104 105 103 102 104 107 110 114 121
79 77 79 79 82 84 87 94 95 95 94 96 94 94 94 96 99 102 105 107 105 107 105 106 108 108 106 104 102 105 111 106 109 106 107 105 106 107 113 114 118 124 125
80 79 80 82 83 82 85 86 87 89 93 94 94 98 100 103 104 105 106 111 112 114 110 111 107 105 109 109 108 112 108 105 106 105 108 108 114 114 116 123 127 130 130

GFSMA_250_spd_135.txt.gz
Wind_Speed
39 41 46 48 51 51 52 56 53 50 48 46 45 42 37 35 33 31 31 30 31 30 32 35 36 40 40 41 44 44 41 35 35 38 39 42 45 48 40 36 36 39 44
42 44 45 44 45 49 49 53 56 54 53 51 48 46 43 40 37 34 34 34 34 32 36 38 40 37 41 42 43 44 42 35 36 38 41 45 43 40 40 38 36 42 43
43 47 49 47 46 50 52 51 52 56 55 53 51 49 48 45 44 41 41 40 38 35 38 40 40 45 48 47 41 44 44 38 37 38 39 43 39 39 41 45 44 46 43
49 49 51 50 53 54 54 56 53 54 56 57 54 53 52 50 49 47 43 42 42 41 39 42 45 46 45 43 42 41 41 41 38 39 36 40 43 44 43 45 45 43 45
56 55 54 53 54 57 57 57 59 58 57 57 59 57 55 54 50 50 49 47 43 43 43 44 47 52 48 45 43 43 43 44 44 40 38 40 43 44 44 44 50 49 49
56 59 58 59 59 57 61 62 60 59 59 58 59 59 59 56 52 52 53 48 45 45 45 49 51 55 54 54 50 47 47 44 44 43 39 42 45 45 48 47 50 50 52
62 58 56 59 62 61 59 60 58 55 56 60 58 62 62 61 57 56 53 51 49 50 51 52 52 53 56 52 50 46 49 45 42 44 40 39 44 47 48 53 53 50 52
64 62 55 56 61 62 61 60 58 57 55 58 62 63 61 61 64 58 55 56 56 55 54 52 54 59 56 50 49 51 50 46 44 46 45 41 49 48 50 51 53 53 48
62 63 64 58 64 61 63 63 60 61 62 60 58 60 64 68 63 56 56 58 57 57 54 53 60 62 57 53 50 45 46 47 48 47 45 48 47 51 49 51 56 59 54
67 66 62 59 60 64 62 64 62 62 63 60 61 54 57 62 58 55 52 50 54 49 50 54 61 61 57 52 46 47 48 48 50 50 48 50 50 54 53 53 55 58 58
69 68 65 66 63 62 65 63 66 67 63 61 62 57 57 59 56 50 61 62 58 53 55 56 63 59 54 49 47 48 50 49 49 51 55 52 53 57 53 55 59 61 63
78 74 72 70 69 68 64 63 71 66 64 61 58 60 61 55 51 42 47 52 56 56 57 60 58 59 56 51 50 51 50 50 53 57 58 57 57 55 58 57 59 65 66
83 81 79 75 74 73 73 72 69 71 64 67 66 64 62 54 54 55 51 51 44 56 61 61 60 62 60 56 55 55 54 56 59 60 59 58 63 60 60 58 66 68 69
89 89 87 83 80 80 73 77 77 70 70 72 69 65 62 56 56 55 60 59 55 55 62 61 61 62 64 62 60 60 60 60 61 58 58 64 62 62 61 60 67 70 73
97 93 87 87 83 85 83 78 82 75 70 71 70 70 62 60 57 59 58 58 60 57 63 62 65 66 66 66 61 61 64 66 66 64 67 64 67 65 64 65 69 72 77
98 97 94 95 90 87 85 86 83 82 76 69 69 72 62 64 62 61 57 58 61 63 62 67 67 69 70 71 69 67 65 67 70 72 68 69 69 67 65 69 72 76 78
92 93 93 91 92 90 85 81 78 81 79 68 68 67 62 61 63 66 59 62 62 59 61 55 65 68 69 70 74 71 68 72 74 70 69 70 71 71 71 74 75 77 78
82 80 78 76 77 78 76 75 74 77 79 66 67 69 63 66 69 66 65 64 64 61 62 66 67 68 71 72 76 78 79 77 75 74 76 76 77 76 75 77 80 80 80
76 71 70 72 73 73 72 71 73 79 74 68 67 66 65 65 69 64 70 72 68 69 66 69 73 74 77 77 79 81 76 78 73 75 78 86 84 80 80 85 84 82 82
70 66 66 71 74 71 68 69 72 81 69 66 66 64 67 69 70 70 72 77 77 76 74 72 74 76 82 81 81 79 78 79 77 84 91 89 81 82 85 86 84 86 88
61 60 66 70 70 68 66 68 77 70 60 65 67 70 67 69 72 74 79 78 81 82 75 76 84 88 86 84 86 87 82 84 85 94 90 83 87 86 87 90 88 92 93
52 54 58 59 60 58 60 72 69 53 51 56 67 70 71 69 74 81 89 89 90 88 92 90 84 90 86 84 86 90 92 96 95 92 87 88 88 90 90 92 94 98 97
44 46 48 49 49 49 56 52 45 46 48 59 65 72 78 80 84 88 90 92 88 94 94 87 90 88 92 91 98 97 99 96 93 94 93 95 98 93 94 96 96 96 93
33 35 36 40 41 37 38 40 45 52 62 70 70 76 77 83 84 87 89 94 94 93 92 93 98 101 102 103 100 101 104 106 104 100 101 106 100 100 102 102 97 98 95
22 26 31 36 39 35 39 50 57 64 74 71 74 81 87 88 90 90 91 95 97 101 103 108 107 106 102 104 108 108 112 115 112 110 111 107 104 104 101 98 100 101 96
22 24 29 32 40 50 58 65 69 76 79 79 79 83 88 92 94 95 99 98 102 107 107 107 107 110 114 115 118 119 118 115 122 120 113 107 105 100 102 104 103 101 100

GFSMA_250_spd_138.txt.gz
Wind_Speed
40 39 36 38 43 44 42 43 45 48 49 48 48 48 45 45 42 39 38 37 35 34 34 35 33 32 32 34 43 42 39 37 40 36 37 34 33 34 36 38 36 37 37
41 40 41 39 39 40 41 41 42 44 47 47 46 49 50 49 47 45 43 40 39 37 38 42 38 35 34 36 44 43 41 40 41 40 39 39 34 33 36 38 40 44 45
45 43 44 43 42 42 39 39 40 41 45 45 47 47 49 51 49 48 47 44 42 41 42 45 39 40 37 37 43 48 47 45 45 42 44 40 34 31 35 38 40 42 48
51 49 48 44 43 46 46 44 44 45 46 49 49 50 50 52 53 52 51 49 48 46 42 44 43 43 40 39 46 50 48 47 43 43 43 41 38 35 36 40 39 39 43
51 49 50 49 47 48 50 48 48 48 47 49 50 51 53 55 57 55 55 53 51 48 47 48 47 42 42 45 47 51 51 46 46 46 46 41 38 36 35 39 44 41 40
58 58 57 54 51 51 52 54 54 52 54 54 51 52 53 56 57 57 58 58 56 52 49 51 48 50 50 52 51 56 54 50 46 47 46 42 40 39 38 41 42 42 43
52 59 58 59 59 56 56 53 56 60 57 56 55 52 52 50 56 59 60 58 59 60 57 55 54 53 55 52 59 60 57 45 47 48 43 43 42 40 39 44 46 42 41
59 59 60 62 61 59 59 56 57 57 56 57 54 53 52 51 55 55 56 59 60 61 61 58 56 55 55 55 54 61 58 52 50 46 43 45 45 43 43 49 45 45 47
64 62 61 67 59 63 63 62 61 59 57 57 56 56 58 57 59 58 55 54 58 59 61 58 58 51 57 59 62 61 59 54 49 45 45 48 43 44 44 47 47 48 48
67 67 66 66 63 60 59 62 64 62 60 61 60 58 58 59 57 61 58 53 50 51 52 57 54 52 58 64 64 64 58 52 51 49 47 50 46 46 49 47 48 51 49
71 72 72 71 69 65 62 63 60 61 60 56 56 60 59 57 62 62 64 57 49 47 40 47 42 45 55 60 62 62 55 53 49 48 51 51 49 51 52 48 50 53 52
80 77 78 77 74 72 67 65 64 65 62 62 58 61 58 59 65 62 60 57 56 55 47 49 51 53 52 53 62 60 54 51 51 50 52 51 50 53 54 52 50 57 61
87 83 81 82 80 78 76 74 72 71 69 68 66 66 65 59 61 64 62 56 58 53 57 56 59 56 59 61 62 54 54 48 50 52 52 48 53 54 55 57 52 57 57
93 93 88 86 86 82 79 80 77 76 73 73 74 73 72 67 61 66 64 59 57 58 56 59 61 60 60 58 56 58 60 60 57 56 58 58 49 55 60 59 58 60 58
100 98 96 96 92 89 83 80 78 79 79 74 75 77 76 75 72 66 66 64 60 60 57 60 60 59 58 64 60 60 58 63 62 60 59 55 60 60 60 61 58 62 64
100 100 102 99 97 93 92 89 85 83 86 85 83 79 78 81 79 72 66 65 64 63 65 64 63 61 64 62 65 62 56 62 69 68 64 61 58 56 62 63 62 62 67
105 106 108 106 104 99 94 93 90 88 87 86 84 85 85 86 80 77 69 69 66 66 61 65 68 64 65 61 63 61 63 69 68 67 65 62 61 60 64 67 65 64 69
98 104 105 108 107 106 103 100 95 93 91 93 90 87 84 82 87 82 67 64 64 66 64 69 68 69 73 74 76 74 69 70 71 69 69 66 69 67 68 67 69 67 73
83 89 89 91 95 99 101 100 100 99 96 95 92 86 82 84 83 85 68 66 68 70 70 68 68 73 78 78 76 75 74 72 70 72 74 74 71 75 72 73 73 75 79
66 72 76 80 82 86 87 88 88 88 91 90 86 81 80 82 83 85 69 67 75 75 73 70 71 77 82 80 78 77 83 83 82 78 74 78 78 77 71 76 78 83 84
55 59 64 66 70 73 75 77 79 81 82 81 77 77 80 79 80 81 77 72 76 74 74 78 78 81 85 88 87 86 87 92 88 91 90 89 86 83 84 84 81 81 82
47 52 57 59 61 64 68 69 71 73 72 72 77 74 76 80 76 71 63 65 69 75 79 81 84 90 90 91 92 92 91 93 94 93 96 91 91 90 86 88 90 84 85
43 48 51 54 56 57 60 64 65 66 68 68 69 73 70 75 76 79 73 69 71 77 84 88 92 94 94 99 98 97 100 102 101 103 97 93 94 90 92 95 91 89 92
35 40 43 45 45 48 53 56 59 63 66 67 71 69 71 69 75 71 76 79 81 87 87 90 97 101 101 101 102 101 101 101 102 97 97 95 99 106 107 100 100 99 98
14 15 20 23 26 28 32 40 48 50 52 58 64 70 70 73 81 77 79 86 87 91 94 95 98 101 102 104 106 106 106 105 104 102 104 105 114 113 111 105 106 108 106
8 10 13 16 19 23 40 46 47 47 51 52 56 57 62 69 76 80 84 90 92 96 99 99 102 107 110 111 112 111 110 109 109 109 109 111 110 116 118 115 115 114 113

GFSMA_250_spd_141.txt.gz
Wind_Speed
33 36 36 34 35 35 37 39 41 42 41 41 40 38 39 41 42 41 44 44 42 40 38 36 38 38 40 40 35 36 34 40 48 47 44 44 39 36 31 30 33 35 35
35 39 40 39 36 35 34 35 36 40 41 41 41 41 40 39 41 41 41 44 45 44 41 39 38 39 42 38 39 35 34 42 47 48 49 45 41 39 33 32 32 34 36
43 45 46 47 46 41 36 37 35 35 37 37 38 39 41 43 44 44 43 44 44 45 45 44 44 46 43 39 41 32 40 44 52 53 50 47 43 40 36 34 36 36 37
46 48 46 44 43 45 44 42 40 36 37 39 39 40 41 43 45 45 47 49 49 46 47 47 47 48 47 46 45 37 45 44 53 56 53 50 44 41 37 37 38 38 40
53 52 51 49 49 50 48 46 46 46 43 43 42 42 43 43 45 47 46 48 50 51 51 52 51 52 52 50 48 49 46 47 54 56 56 53 52 45 38 38 39 36 38
55 54 54 51 50 50 50 51 51 49 47 45 47 49 49 48 49 47 47 46 49 49 51 54 54 52 54 55 55 50 48 48 49 49 52 54 49 42 39 42 36 37 38
55 55 53 50 49 51 57 57 57 56 55 52 51 49 46 49 50 48 46 46 45 46 47 47 51 56 54 58 55 51 48 51 57 58 60 54 48 44 41 42 41 39 42
62 62 60 58 54 58 60 59 59 59 58 56 55 55 51 51 50 50 52 50 50 53 51 49 49 51 54 55 54 53 51 51 58 54 55 53 45 44 41 40 41 42 43
67 66 64 60 59 57 57 57 61 63 60 58 54 53 53 54 56 55 54 54 55 55 53 52 52 50 47 48 48 47 53 56 55 52 52 49 47 42 41 39 39 41 40
66 66 68 66 66 61 61 60 61 66 65 61 57 56 58 51 57 53 55 56 59 55 53 55 52 49 43 45 40 46 44 52 56 53 50 47 46 44 41 39 38 39 40
73 72 72 70 69 70 67 65 61 63 63 62 63 62 60 58 58 57 52 52 56 59 58 56 55 53 50 49 50 54 53 58 58 52 46 46 43 40 42 44 42 42 46
79 76 77 76 78 77 75 71 70 68 68 68 67 66 63 61 61 62 58 61 58 54 57 58 60 59 52 54 55 56 59 59 60 54 50 45 48 47 46 45 46 46 47
84 82 82 81 81 80 80 78 74 73 71 70 69 68 69 67 68 70 70 64 65 61 57 55 59 55 56 57 57 58 61 62 60 59 54 53 53 54 51 49 51 49 48
86 86 84 84 82 82 84 84 82 79 78 77 75 75 74 70 71 70 68 70 69 67 66 65 60 62 59 58 63 62 60 60 63 63 62 59 54 55 56 56 48 49 48
95 93 94 93 93 90 87 90 89 87 82 81 79 78 77 76 77 77 78 75 78 75 72 71 69 67 61 63 63 64 64 66 63 65 62 58 60 60 65 53 50 50 49
102 101 100 99 99 101 101 97 96 95 92 90 86 83 82 82 84 84 83 79 79 80 75 75 75 74 72 66 64 68 68 64 64 66 66 69 72 67 65 58 56 60 59
100 100 103 103 105 106 106 102 99 99 97 94 92 89 88 87 87 87 88 84 84 86 85 83 79 77 77 72 71 70 67 69 68 69 66 66 68 67 66 61 60 61 62
102 103 105 108 112 112 111 110 108 105 100 97 94 93 92 91 92 90 89 91 93 92 89 87 83 72 73 75 72 74 74 70 73 73 73 76 72 78 70 69 68 65 67
88 90 94 98 103 108 114 112 111 109 106 104 102 100 100 100 98 100 100 97 95 93 90 86 83 83 76 75 76 75 78 73 74 78 80 82 81 77 74 74 78 78 74
76 77 78 81 87 94 101 109 115 117 114 110 109 107 105 102 102 103 101 98 93 89 88 84 83 88 81 79 78 81 82 79 82 86 83 83 84 84 83 82 82 81 79
62 64 65 66 70 74 80 86 95 104 108 108 108 108 104 103 101 97 96 94 93 88 85 85 89 88 84 80 83 88 86 88 90 89 88 87 90 91 90 86 87 83 85
49 52 54 54 55 59 65 72 79 84 88 91 93 95 95 94 94 90 87 87 90 87 87 84 87 88 87 88 81 79 86 93 94 95 96 93 96 94 93 92 91 94 92
39 42 44 47 52 56 61 65 69 71 72 74 76 78 80 82 82 82 86 87 84 87 87 91 91 90 89 91 81 83 88 94 97 98 102 100 100 102 102 101 102 101 100
22 31 38 44 48 52 56 57 57 58 59 61 62 68 73 74 73 74 78 82 83 89 92 94 96 93 92 90 96 94 96 97 100 105 106 106 108 105 104 104 102 102 101
12 18 24 29 34 40 42 43 44 44 48 51 55 59 64 67 71 76 83 88 90 87 92 90 91 90 92 95 100 103 104 102 102 105 110 111 106 107 107 107 106 105 103
13 15 14 15 17 20 22 30 34 35 37 41 45 45 53 58 64 65 68 71 79 85 83 90 93 95 101 106 108 110 111 112 109 109 112 110 114 116 113 108 108 107 107